GW2474 Weather Reports


time (UTC)temp
F
wind
direction
speed
knots
gust
knots
rain 1hr
in
rain 24hr
in
rain mn
in
humidity
%
barometer
mb
20260505124553 56 284 5.2 10.4 0.00 0.12 0.05 83 1004.8
20260505123101 56 267 5.2 11.3 0.00 0.12 0.05 84 1004.5
20260505121554 56 252 3.5 7.8 0.00 0.12 0.05 84 1004.7
20260505120054 56 291 4.3 9.6 0.00 0.12 0.05 84 1004.8
20260505114600 56 257 4.3 7.8 0.00 0.12 0.05 84 1004.6
20260505113055 55 246 3.5 7.8 0.00 0.12 0.05 84 1004.3
20260505111557 56 274 3.5 11.3 0.00 0.12 0.05 84 1004.2
20260505101607 56 273 4.3 9.6 0.00 0.12 0.05 83 1003.1
20260505100104 56 267 1.7 8.7 0.00 0.12 0.05 83 1002.5
20260505094551 57 265 3.5 8.7 0.00 0.12 0.05 83 1002.5
20260505093104 57 254 3.5 8.7 0.00 0.12 0.05 83 1002.6
20260505091556 57 286 4.3 8.7 0.00 0.12 0.05 83 1002.6
20260505090054 57 247 2.6 11.3 0.00 0.12 0.05 83 1002.4
20260505084602 57 281 3.5 8.7 0.00 0.12 0.05 83 1002.8
20260505083105 57 306 5.2 9.6 0.00 0.12 0.05 83 1002.6
20260505081559 57 257 3.5 7.8 0.00 0.12 0.05 83 1002.2
20260505080059 57 281 3.5 8.7 0.00 0.12 0.05 83 1002.1
20260505074552 57 214 2.6 7.0 0.00 0.12 0.05 84 1001.8
20260505073055 57 244 3.5 9.6 0.00 0.12 0.05 84 1001.8
20260505071554 57 154 0.9 7.8 0.00 0.12 0.05 84 1001.4
20260505070058 57 169 0.9 5.2 0.00 0.12 0.05 84 1001.2
20260505064551 57 185 0.9 4.3 0.00 0.12 0.05 84 1001.0
20260505063051 56 187 0.9 6.1 0.01 0.12 0.05 84 1001.3
20260505061552 56 172 1.7 3.5 0.01 0.12 0.05 84 1001.4
20260505054556 57 213 0.0 3.5 0.02 0.12 0.05 84 1001.5
20260505053051 57 194 0.9 5.2 0.02 0.11 0.04 84 1001.6
20260505051553 57 261 1.7 7.8 0.04 0.11 0.04 84 1002.3
20260505041551 58 263 2.6 8.7 0.05 0.07 0.00 83 1002.5
20260505040050 59 281 6.1 16.5 0.05 0.07 0.00 81 1002.5
20260505034552 63 296 11.3 20.9 0.02 0.04 0.04 76 1003.2
20260505033052 65 263 2.6 7.8 0.00 0.02 0.02 67 1001.7
20260505031552 66 190 0.9 5.2 0.00 0.02 0.02 65 1001.3
20260505030055 66 162 1.7 7.0 0.00 0.02 0.02 64 1001.4
20260505024555 66 169 2.6 6.1 0.00 0.02 0.02 63 1001.5
20260505023055 67 186 1.7 7.0 0.00 0.02 0.02 63 1001.5
20260505021554 67 167 2.6 7.8 0.00 0.02 0.02 62 1001.6
20260505020054 67 257 2.6 7.8 0.00 0.02 0.02 61 1001.5
20260505014558 68 275 1.7 5.2 0.00 0.02 0.02 59 1001.3
20260505013053 68 138 0.9 7.0 0.00 0.02 0.02 57 1001.2
20260505011554 69 271 2.6 13.0 0.00 0.02 0.02 56 1001.2
20260505010110 70 279 4.3 13.0 0.00 0.02 0.02 55 1001.2
20260505004549 70 250 6.1 15.6 0.00 0.02 0.02 53 1001.1
20260505003054 70 275 6.1 15.6 0.00 0.02 0.02 52 1001.0
20260505001555 71 196 5.2 20.0 0.00 0.02 0.02 50 1000.6
20260505000051 70 288 6.1 14.8 0.00 0.02 0.02 53 1000.5
20260504234550 66 261 7.8 15.6 0.00 0.02 0.02 64 1000.4
20260504233051 64 313 0.9 3.5 0.00 0.02 0.02 74 1000.3
20260504231548 64 284 0.9 5.2 0.02 0.02 0.02 74 1000.3
20260504230052 65 355 4.3 9.6 0.02 0.02 0.02 72 1000.5
20260504224552 67 259 0.9 6.1 0.02 0.02 0.02 67 999.9
20260504223101 72 264 5.2 12.2 0.01 0.01 0.01 57 1000.3
20260504221603 74 252 5.2 12.2 0.00 0.00 0.00 48 1000.2
20260504220052 75 286 0.9 14.8 0.00 0.00 0.00 49 1000.0
20260504214559 75 199 3.5 14.8 0.00 0.00 0.00 49 1000.3
20260504213103 75 187 5.2 15.6 0.00 0.00 0.00 48 1000.4
20260504211551 75 192 4.3 15.6 0.00 0.00 0.00 49 1000.5
20260504210054 75 260 7.8 17.4 0.00 0.00 0.00 49 1000.8
20260504204558 74 256 6.1 13.9 0.00 0.00 0.00 52 1001.0
20260504203053 74 308 5.2 13.0 0.00 0.00 0.00 50 1001.4
20260504201553 73 140 3.5 16.5 0.00 0.00 0.00 50 1001.5
20260504200053 73 267 4.3 9.6 0.00 0.00 0.00 48 1001.7
20260504194556 74 205 2.6 11.3 0.00 0.00 0.00 45 1001.6
20260504193057 74 11 2.6 12.2 0.00 0.00 0.00 45 1002.0
20260504191551 74 153 5.2 12.2 0.00 0.00 0.00 43 1002.1
20260504190050 73 161 3.5 9.6 0.00 0.00 0.00 43 1002.3
20260504184552 73 121 3.5 11.3 0.00 0.00 0.00 42 1002.4
20260504183051 73 319 4.3 9.6 0.00 0.00 0.00 42 1002.5
20260504181551 73 192 2.6 11.3 0.00 0.00 0.00 44 1002.7
20260504180053 72 199 4.3 12.2 0.00 0.00 0.00 44 1003.0
20260504174550 72 146 6.1 12.2 0.00 0.00 0.00 44 1003.2
20260504173050 72 130 2.6 9.6 0.00 0.00 0.00 45 1003.5
20260504171554 71 182 3.5 12.2 0.00 0.00 0.00 47 1003.6
20260504150109 63 203 1.7 11.3 0.00 0.00 0.00 62 1005.2